Tracking 25949 objects as of 8-Aug-2022
HD Live streaming from Space Station
objects crossing your sky now

COSMOS 1275 DEB

Track COSMOS 1275 DEB now!
10-day predictions


NORAD ID: 42187
Int'l Code: 1981-053TB
Perigee: 871.4 km
Apogee: 962.5 km
Inclination: 83.0 °
Period: 103.2 minutes
Semi major axis: 7287 km
RCS: Unknown
Launch date: June 4, 1981
Source: Commonwealth of Independent States (former USSR) (CIS)
Launch site: PLESETSK MISSILE AND SPACE COMPLEX (PKMTR)

Note: This is SATELLITE DEBRIS
aabbcc
Your satellite tracking list
Your tracking list is empty




NASA's NSSDC Master Catalog

Two Line Element Set (TLE):
1 42187U 81053TB  22209.19450823  .00000901  00000-0  64267-3 0  9994
2 42187  82.9713 174.2939 0062499 172.5974 187.6132 13.95378097441272
Source of the keplerian elements: AFSPC